Location: Angwan Shehu
(11.2514°N, 7.4613°E)
Time: 14:18:46
(UTC+00:00)

Delta 202 - Pass Details

Date: 14 November 2019
Orbit: 781 x 2713 km, 18.5° (Epoch: 10 December)

Event Time Altitude Azimuth Distance (km) Brightness Sun altitude
Rises 18:52:05 0° 285° (WNW) 5,500 8.8 -26.5°
Reaches altitude 10° 18:56:14 10° 287° (WNW) 4,197 8.0 -27.4°
Maximum altitude 19:06:50 77° 12° (NNE) 1,348 4.5 -30.0°
Enters shadow 19:07:44 70° 64° (ENE) 1,347 4.4 -30.2°
